Theta_e
289 288 288 288 289 289 289 289 290 290 290 290 291 291 291 292 293 292 294 295 296 297 299 300 300 303 304 303 304 306 306 308 308 308 309 309 309 310 311 312 312 311 311 312 311 310 310 309 309 307 307 307 308 308 307 305 304 303 301 299 298 293 292 290 290 290 288 287 285 285 287 286 288 288 287 287 288 288 287 288 289 290 290 290 293
288 287 287 287 287 288 288 289 289 288 288 289 289 289 290 291 291 291 292 293 294 295 296 297 297 296 297 298 302 301 302 303 303 304 306 307 307 307 308 309 309 309 308 309 309 309 308 307 307 307 306 306 305 303 302 300 300 299 297 294 294 296 295 291 291 292 288 287 287 284 283 285 288 287 287 288 288 287 288 289 289 290 290 289 289
286 286 286 286 286 287 287 287 287 288 288 288 288 289 289 289 290 291 291 291 292 294 295 295 296 297 297 296 297 297 298 300 300 300 302 303 302 302 302 304 306 306 306 306 307 306 306 306 305 305 305 303 304 303 302 301 299 299 298 300 295 292 292 291 291 293 292 286 284 284 282 283 284 285 287 288 288 287 287 288 289 289 290 289 288
285 285 285 285 285 286 286 286 286 287 287 287 287 288 289 289 289 289 290 290 291 292 294 294 295 295 296 296 297 296 294 295 296 296 296 297 296 297 297 298 300 301 302 302 303 303 304 304 304 303 303 303 303 303 302 301 300 299 299 298 297 294 291 291 291 292 290 291 289 287 282 281 282 283 283 284 286 288 287 288 288 289 289 288 286
284 284 284 284 285 285 285 285 286 286 286 286 286 287 288 287 288 288 289 289 290 291 292 293 294 294 295 295 295 294 294 293 293 293 292 293 293 293 293 294 295 295 296 297 297 299 300 301 301 301 301 301 301 301 301 301 300 299 298 298 297 299 297 293 292 291 291 292 294 285 284 284 281 280 279 282 281 285 286 287 287 288 288 288 288
284 283 284 284 284 284 284 284 285 285 285 285 285 286 286 287 287 288 288 289 289 289 291 292 292 291 291 291 290 290 289 289 289 289 290 290 290 291 292 292 292 292 292 292 293 294 296 297 298 299 300 300 299 299 299 299 299 299 298 297 296 295 295 295 292 292 292 292 290 289 290 288 285 282 283 282 279 283 283 283 286 286 285 287 287
284 284 284 283 283 283 284 284 284 284 284 284 285 285 285 286 286 287 287 287 288 288 289 290 289 290 289 289 288 288 287 287 288 289 289 289 290 290 290 290 290 290 290 291 291 291 292 293 294 295 296 296 296 297 298 298 298 298 298 297 296 296 295 293 294 293 292 291 291 291 289 287 286 287 287 283 285 280 281 282 285 284 285 285 287
283 283 283 283 283 283 283 283 283 283 284 284 285 285 285 285 285 285 286 286 286 287 288 289 288 288 288 288 288 287 287 286 287 288 288 289 288 288 289 289 289 289 289 289 289 290 290 290 291 292 292 293 293 294 295 295 295 297 297 297 296 295 295 293 294 293 292 292 291 291 290 289 287 288 286 287 285 283 284 281 281 283 283 285 286
282 282 282 282 282 282 282 282 282 283 284 284 284 284 284 284 285 285 284 285 285 286 286 287 288 287 286 286 286 286 287 286 287 287 287 287 287 287 287 287 288 288 288 288 288 288 289 289 290 290 291 291 291 292 293 294 294 295 295 295 295 295 294 294 293 293 292 292 291 290 290 290 289 288 286 286 286 285 285 284 284 280 281 283 285
282 282 282 282 282 282 281 281 282 282 283 284 283 284 284 284 284 284 284 284 284 284 284 285 285 286 285 285 284 285 285 285 285 285 285 285 285 285 286 286 286 286 287 287 287 287 288 288 288 289 289 289 290 290 291 291 291 292 293 293 293 293 294 294 293 293 293 293 292 292 290 289 288 287 286 285 286 286 284 285 284 283 285 285 284
281 281 281 281 281 281 281 281 281 282 282 283 283 283 283 283 283 283 283 284 284 283 283 283 284 284 283 283 283 283 283 283 283 283 284 284 283 283 284 284 285 285 285 285 286 286 286 287 287 287 288 288 288 289 289 289 290 290 290 290 291 292 292 293 293 293 292 292 291 291 290 290 290 289 288 286 286 285 285 285 284 284 284 285 284
281 280 280 280 281 281 281 281 281 281 282 282 282 282 282 282 282 282 282 282 283 283 283 283 283 283 283 283 282 282 282 282 282 282 282 282 282 282 282 283 283 283 284 284 284 284 285 285 286 286 286 287 287 288 288 288 289 289 289 289 289 289 290 290 291 291 292 292 291 291 291 291 291 290 290 290 288 287 287 287 287 285 284 283 283
280 280 280 280 280 280 280 280 280 281 281 281 281 281 281 282 282 282 281 282 282 282 282 282 282 282 282 282 282 283 282 282 282 281 281 282 282 282 282 282 283 283 283 283 283 283 284 284 284 284 285 286 286 287 287 287 288 288 288 288 288 288 288 287 288 289 290 290 290 291 291 291 290 291 291 290 289 289 287 286 287 286 285 287 283
280 280 280 280 280 280 280 280 280 280 280 280 280 281 281 281 281 281 281 281 281 281 281 281 281 281 281 282 281 282 281 282 281 281 281 281 282 282 282 282 282 283 283 283 284 284 284 284 284 284 284 285 286 286 286 287 287 287 287 287 287 287 287 286 286 286 287 288 289 289 289 290 290 290 289 289 288 287 286 286 286 286 286 286 285
280 280 280 280 280 280 280 280 279 279 279 280 280 280 280 280 280 280 280 280 281 281 281 281 281 281 281 281 281 281 281 281 281 282 281 281 281 281 281 282 282 282 283 284 285 284 284 284 284 283 284 284 284 284 285 285 286 286 286 286 286 287 286 286 286 286 286 286 286 286 287 287 288 289 288 288 289 288 288 287 286 284 285 286 286
280 279 279 280 280 280 280 280 280 279 279 279 279 279 280 279 279 280 280 279 280 280 280 280 280 280 280 280 280 281 281 281 281 281 281 281 281 281 281 281 282 282 282 283 284 284 284 284 284 284 284 284 283 283 283 284 285 284 284 285 285 287 286 286 286 286 286 286 285 285 285 285 286 286 286 287 287 288 287 287 286 285 283 282 285
279 279 279 280 280 280 280 280 280 280 279 279 279 279 279 279 279 280 279 279 280 280 280 279 279 279 279 279 279 279 280 279 279 279 280 280 280 280 280 280 281 282 282 283 283 283 283 283 283 283 283 283 283 283 283 283 283 283 283 284 283 285 285 285 286 286 286 286 286 285 285 285 285 285 285 285 285 285 286 286 286 286 286 283 282
279 279 279 279 280 280 280 281 280 279 279 279 280 281 281 282 281 281 281 281 281 281 281 280 279 279 278 278 278 279 279 279 279 279 279 279 279 279 279 279 279 280 281 282 282 282 282 283 282 282 282 282 282 283 282 282 283 282 282 283 283 284 284 284 284 285 285 285 286 286 286 285 285 285 285 285 284 284 283 284 285 285 285 284 283
280 279 280 280 280 281 281 281 281 282 282 282 282 281 281 281 281 281 281 280 280 281 280 280 280 281 280 279 279 279 280 279 279 279 279 278 278 279 279 278 278 279 280 279 279 279 280 280 280 280 280 281 281 282 282 282 282 281 282 282 282 283 282 282 283 284 284 285 284 285 285 285 286 285 285 285 285 284 284 283 283 283 283 283 283
280 280 280 280 281 281 282 282 282 281 281 281 281 280 280 280 280 280 279 280 280 280 281 281 282 281 281 280 280 280 280 279 279 278 279 278 278 279 279 279 279 279 279 279 279 278 279 278 279 279 279 279 279 280 281 281 281 281 281 281 281 281 281 281 281 282 283 284 283 283 284 284 285 285 285 285 285 285 284 284 283 283 283 282 282
281 281 280 281 281 281 282 282 283 283 283 283 283 283 283 282 281 281 280 279 279 280 280 280 280 279 279 278 278 279 279 279 279 278 278 278 278 279 279 278 278 279 278 279 278 278 279 279 278 279 278 278 279 279 279 279 279 280 280 280 281 281 280 280 281 281 281 281 282 281 282 283 284 283 284 284 284 285 284 284 284 283 283 283 282
283 282 282 283 283 283 283 283 284 283 283 283 283 282 282 282 281 280 279 278 279 279 279 279 279 279 278 278 278 278 278 277 277 278 278 278 278 278 278 279 279 279 278 278 278 278 278 278 278 278 279 279 279 279 278 278 278 278 279 280 280 280 279 279 280 279 280 281 281 281 281 282 282 282 282 283 283 284 284 284 284 283 283 283 283
284 283 283 284 284 284 283 283 282 282 282 281 281 280 280 280 280 279 279 279 278 278 277 277 277 277 277 277 276 277 276 276 277 277 277 278 278 279 278 278 278 278 279 278 278 278 278 278 278 278 278 278 278 278 278 278 278 278 278 278 279 278 278 278 279 279 279 279 279 280 280 281 282 281 281 281 282 282 283 283 283 284 283 283 283
283 283 283 283 282 281 281 281 281 280 280 280 279 279 279 279 278 278 279 278 278 278 277 278 278 277 276 276 276 276 276 276 276 276 276 277 277 277 277 277 278 277 278 278 278 278 278 277 277 278 278 277 278 278 278 278 278 278 278 278 278 278 278 278 278 278 279 279 278 279 279 279 279 279 280 280 280 281 281 282 282 282 283 283 283
280 280 281 280 279 279 280 279 279 278 278 278 279 279 278 279 278 278 278 278 277 277 277 277 277 277 276 276 276 275 275 275 275 275 276 276 276 277 276 276 276 276 276 276 277 276 276 276 277 277 277 277 277 277 277 277 278 277 277 277 277 277 277 277 277 278 280 278 278 278 279 279 279 278 279 279 279 279 280 281 281 281 281 282 283
280 280 279 279 280 279 279 278 278 278 278 279 279 278 278 278 278 277 277 277 277 277 277 277 277 277 276 276 275 275 275 275 275 275 276 276 276 276 275 275 275 276 276 275 276 276 276 276 276 276 276 276 276 276 276 277 277 277 277 277 277 277 277 277 277 277 277 278 278 278 279 279 279 278 279 279 279 279 279 279 279 280 280 281 281
279 279 279 278 278 279 279 278 278 278 278 279 278 278 277 277 277 277 277 277 277 277 276 276 276 275 275 275 275 275 275 274 275 275 275 275 275 275 275 275 276 275 275 275 275 275 275 275 275 275 275 275 276 276 276 276 276 276 276 276 276 276 277 277 277 278 278 278 278 278 278 279 279 279 279 279 279 279 279 279 279 279 280 280 280
278 278 278 279 279 279 278 278 277 277 277 276 276 276 277 276 276 276 276 276 277 276 275 275 275 275 275 275 275 274 275 275 275 275 275 275 275 274 274 274 274 274 274 274 274 274 274 274 274 274 274 275 275 275 275 275 275 275 275 276 276 276 277 277 277 278 278 278 278 278 278 278 279 279 279 279 280 279 279 279 279 279 279 279 279
278 279 278 279 279 279 278 277 277 276 276 276 276 276 276 276 276 275 275 275 275 275 275 275 275 274 274 274 275 275 275 274 274 274 273 273 272 272 272 272 272 272 272 272 272 272 272 272 272 272 272 273 273 273 274 274 275 275 276 276 276 277 277 276 277 277 278 278 278 278 278 279 279 281 283 283 283 283 281 279 280 280 279 279 278
279 279 279 278 278 277 277 277 276 277 277 276 276 276 276 275 275 275 274 275 274 274 274 274 274 273 274 274 274 273 273 272 272 271 271 271 270 270 270 270 270 270 269 270 270 270 270 270 270 270 270 271 271 272 273 276 277 276 275 276 276 276 276 276 276 276 276 277 277 278 278 281 281 282 282 283 283 284 284 283 281 281 280 279 278
279 278 278 277 277 276 276 276 276 275 276 276 276 276 275 274 274 274 274 274 273 273 273 272 272 273 272 272 272 271 271 270 270 270 269 268 268 268 267 267 267 267 268 268 268 268 268 268 268 268 268 268 269 270 273 275 277 278 276 275 275 275 275 275 275 275 275 276 276 277 277 278 279 280 279 281 282 283 283 283 284 284 284 282 280
278 278 277 276 277 277 276 276 276 276 276 276 276 275 274 274 274 273 273 273 272 272 272 272 271 271 271 271 270 269 268 268 267 267 266 266 266 265 265 265 265 266 266 266 266 266 266 266 266 266 266 266 267 270 273 274 275 276 276 274 274 273 274 274 274 274 274 274 275 275 276 277 277 277 277 278 279 281 282 282 283 283 284 285 285
278 276 276 277 277 277 277 276 276 276 276 275 275 274 274 273 273 273 272 271 271 270 270 270 270 269 269 269 268 266 266 265 265 264 264 264 263 263 263 263 263 264 264 264 264 264 264 265 265 264 264 265 265 268 271 273 274 275 275 274 272 273 273 273 273 273 273 273 274 274 274 275 275 277 277 276 276 276 279 281 281 281 282 283 284
275 276 277 278 277 276 276 276 276 275 275 274 274 274 273 273 272 271 270 270 269 269 269 268 268 268 267 267 266 263 263 263 263 263 262 262 262 262 262 263 263 263 263 262 262 263 263 263 263 263 263 263 263 266 271 272 273 274 275 274 271 271 271 271 271 271 271 271 271 272 272 272 273 274 275 275 275 276 276 276 276 276 277 279 281
275 276 276 277 277 276 276 275 275 274 273 273 273 273 272 271 271 270 269 268 268 267 267 268 266 266 265 264 264 263 262 262 262 261 261 260 261 261 261 261 261 261 261 261 261 261 261 262 261 261 261 261 262 268 270 271 272 273 274 274 270 270 269 269 269 269 269 270 270 271 271 271 271 272 273 274 274 274 274 274 274 274 274 275 276
276 276 277 276 276 276 276 275 275 273 272 272 272 271 270 269 269 269 267 268 266 266 266 266 264 264 263 264 262 261 261 260 261 260 259 260 260 260 260 260 260 260 260 261 261 261 260 260 260 260 260 260 261 268 269 270 272 273 274 270 268 268 268 268 268 269 269 269 270 270 270 270 270 271 273 276 276 274 274 273 273 274 274 275 276
276 277 277 278 278 277 276 274 273 272 271 271 270 269 268 267 266 265 265 265 265 264 264 264 263 263 262 262 262 261 260 260 260 259 258 259 259 259 259 260 259 259 260 259 259 259 260 260 259 260 259 260 260 264 268 270 271 272 271 267 267 267 267 267 267 268 269 269 269 270 270 270 271 271 274 276 276 276 273 273 273 273 274 274 274
277 276 276 276 276 275 274 273 271 270 270 269 268 267 266 265 265 265 263 264 263 263 263 262 262 261 262 262 261 259 259 259 258 258 258 259 259 259 258 259 259 258 258 258 259 259 259 259 259 259 259 259 260 263 268 269 270 271 270 267 267 266 266 267 267 268 268 268 269 271 271 269 269 269 273 275 276 275 273 273 272 272 272 273 274
276 276 276 275 275 274 272 271 270 268 268 267 265 265 264 264 264 264 263 262 263 263 262 261 262 262 261 260 259 259 259 258 257 258 257 257 258 258 258 258 258 258 258 258 258 258 258 258 258 259 261 260 260 262 266 268 270 270 269 267 267 267 266 266 266 266 267 268 268 269 271 271 271 272 275 276 276 275 273 273 273 272 271 271 273
275 275 276 275 273 271 269 269 268 268 266 265 263 263 263 263 264 263 262 261 263 262 262 262 261 261 259 258 258 258 258 257 257 257 257 257 258 257 257 258 258 257 257 257 258 257 257 257 258 258 259 259 259 259 262 268 269 270 271 268 267 266 265 266 266 266 266 267 267 268 270 273 274 274 275 275 275 276 272 272 272 271 271 271 274
275 275 275 272 272 272 271 269 268 266 265 264 263 263 262 262 263 262 261 262 262 262 261 261 261 259 258 257 257 256 257 256 257 257 257 257 257 257 257 257 256 257 256 256 256 257 257 257 258 258 259 259 259 259 261 267 269 270 271 270 267 267 267 266 266 266 267 267 268 268 269 272 274 274 275 275 276 276 276 273 272 271 271 273 276
274 274 272 271 270 269 267 267 266 265 264 262 262 262 262 261 261 260 260 262 261 261 260 258 258 257 256 255 255 256 256 256 256 256 256 256 257 256 256 256 256 256 255 255 256 256 256 257 257 258 258 258 260 262 261 265 268 270 271 272 268 268 269 268 268 268 268 268 268 268 268 271 274 275 275 275 276 276 276 274 273 276 278 278 275
272 271 271 271 269 268 267 266 264 263 263 262 260 259 260 259 259 259 261 259 260 259 259 258 256 255 255 254 254 255 255 255 255 256 255 255 256 255 255 255 255 255 255 255 255 256 256 256 256 257 258 258 259 259 264 263 268 270 271 272 272 271 273 271 269 267 268 268 269 269 269 273 274 275 275 276 276 277 276 275 277 278 278 278 277
273 273 271 269 269 267 266 264 263 262 262 262 259 259 258 258 259 261 260 258 257 257 256 255 254 253 253 254 253 254 254 254 254 254 254 254 254 254 255 255 255 255 254 254 255 255 255 255 255 256 257 258 259 260 263 267 266 270 271 273 273 274 274 271 270 269 269 269 268 268 269 273 275 276 277 277 277 277 275 277 277 277 277 276 272
273 272 269 269 269 266 264 263 262 261 260 259 258 257 257 256 259 259 258 257 256 254 253 252 251 251 252 253 253 253 253 254 254 254 254 255 254 253 254 254 254 254 254 254 254 255 254 254 255 256 258 259 260 261 261 264 269 270 272 272 273 274 274 274 270 270 270 269 272 275 275 276 276 276 276 276 275 274 275 275 276 276 275 272 271
269 267 267 266 265 263 263 262 260 260 260 258 258 257 256 257 258 258 257 256 254 253 252 252 252 252 253 253 253 254 254 254 254 254 254 255 254 254 254 254 254 254 254 254 254 254 255 256 257 258 259 260 262 263 264 265 266 268 269 270 272 273 273 273 273 272 274 275 276 276 276 276 274 273 271 270 270 270 274 275 276 275 272 271 270
270 268 265 263 264 263 263 262 262 260 259 257 255 256 256 257 255 257 256 254 252 252 253 252 252 252 252 252 253 253 254 255 254 255 255 255 255 254 254 254 254 253 254 254 255 255 256 257 258 259 261 262 262 263 265 266 266 266 266 267 268 268 271 272 269 268 269 268 269 270 270 273 273 275 275 275 274 274 271 270 269 268 268 268 268
268 266 265 264 264 264 262 261 262 261 260 259 258 256 255 254 254 256 253 252 252 252 252 251 252 251 252 253 253 255 256 254 254 254 254 254 254 254 253 254 254 254 255 256 256 257 258 259 259 260 260 260 263 265 266 266 266 267 267 268 269 269 269 268 268 267 267 268 268 271 271 270 269 268 268 268 267 267 267 268 268 268 268 269 270
266 264 264 265 264 263 262 261 261 261 260 260 257 255 254 255 257 254 252 251 252 253 251 251 251 252 252 254 254 254 253 254 254 254 254 254 254 254 255 255 257 257 257 257 257 258 260 262 263 263 264 264 265 265 266 270 270 273 271 270 270 270 270 270 272 274 272 270 268 267 266 266 266 265 266 266 266 267 267 268 268 268 268 268 269
266 263 264 263 262 262 260 260 260 260 258 257 256 255 253 256 254 253 252 251 252 251 250 250 251 251 252 252 253 253 252 254 253 253 254 254 258 262 262 260 260 264 267 269 269 266 266 267 266 267 267 265 265 267 272 273 273 274 274 275 274 275 275 273 275 276 273 270 268 267 266 266 266 265 265 265 265 265 265 266 266 269 268 268 268
263 263 262 262 261 260 259 258 259 258 256 255 256 256 254 253 254 254 252 251 250 251 251 252 252 252 253 254 253 253 253 253 253 254 253 254 254 256 261 264 265 266 267 269 269 270 270 271 268 266 267 271 271 272 273 273 273 273 274 274 274 275 275 275 275 272 269 267 265 263 263 263 263 263 263 263 264 264 265 265 266 267 268 268 269
Wind_Speed
6 6 7 9 9 9 8 9 9 11 13 13 13 13 13 11 13 14 10 11 11 10 9 8 8 6 8 8 7 7 8 9 11 9 10 9 11 11 11 9 9 9 8 7 7 6 5 5 5 4 4 1 2 4 3 4 2 2 2 2 5 4 3 2 2 3 1 3 2 4 6 4 5 4 5 5 6 6 3 5 6 6 7 5 6
6 9 10 9 9 10 9 9 11 14 13 12 13 11 11 12 13 11 10 11 11 9 7 7 6 3 4 4 6 7 9 10 9 10 9 9 12 12 11 11 11 11 10 9 9 8 7 6 6 6 5 4 4 5 4 3 2 0 2 2 1 5 4 3 3 5 0 5 5 5 4 5 6 5 6 7 7 5 5 6 7 6 7 6 4
8 8 8 8 9 10 9 9 10 9 10 12 10 13 14 13 11 10 10 10 10 10 9 7 5 6 6 6 5 6 6 6 8 8 9 10 12 12 12 12 11 11 11 10 10 9 8 7 6 4 4 4 4 4 3 3 3 2 1 2 1 0 0 2 5 7 4 2 1 3 5 4 4 3 5 7 6 6 6 7 7 6 8 6 5
9 8 8 8 8 8 10 11 9 9 11 12 13 12 11 11 11 11 11 10 10 10 9 6 5 4 6 7 8 10 5 5 8 12 13 14 13 12 12 11 12 11 12 11 9 10 9 9 7 7 6 4 3 4 4 3 2 2 2 3 3 2 2 4 4 4 3 4 3 5 3 1 8 4 4 5 6 8 7 9 6 8 8 5 4
6 7 8 9 11 12 10 8 8 12 12 12 11 11 8 10 10 10 10 10 10 11 10 9 11 11 8 9 9 10 12 12 12 12 10 9 11 12 11 12 12 12 11 12 11 10 10 9 9 8 7 6 5 5 4 2 0 1 1 2 3 4 5 2 0 3 5 5 2 2 2 1 5 6 3 6 1 2 6 8 6 6 6 6 5
4 5 7 6 7 8 10 10 11 10 11 9 8 9 9 10 10 11 10 10 11 11 10 10 10 10 11 11 11 9 10 11 11 9 10 10 8 5 11 12 12 11 11 12 12 10 11 10 9 9 9 7 6 5 4 4 3 2 2 2 3 4 4 4 3 2 6 6 4 2 1 4 2 2 3 9 3 5 4 3 6 5 4 4 5
4 5 5 8 8 9 10 10 9 10 8 6 7 8 9 9 9 10 10 10 10 11 11 9 11 10 11 10 9 8 8 6 4 5 6 6 7 10 8 10 11 11 11 11 11 11 10 10 9 8 8 8 7 7 7 7 6 4 2 1 3 3 1 5 6 5 1 4 6 7 4 1 1 2 7 3 10 4 1 4 6 5 6 5 7
3 5 6 6 6 7 8 7 8 7 5 6 7 8 10 10 10 11 10 11 10 9 12 10 10 9 10 10 9 9 8 6 7 6 7 7 11 10 9 9 10 10 11 11 11 10 10 10 9 9 9 8 7 7 7 7 7 6 6 4 3 3 3 4 6 5 5 4 4 8 8 4 3 2 3 7 7 10 11 3 3 6 4 6 8
3 4 5 5 6 6 5 7 5 6 7 8 7 6 6 8 9 10 12 11 10 11 11 11 11 10 9 8 11 8 7 7 5 7 9 8 11 10 11 10 11 11 12 12 12 11 10 10 10 10 9 8 7 8 7 7 8 8 9 8 7 5 3 4 4 6 5 6 5 4 5 7 5 5 3 1 6 8 14 8 9 4 3 6 8
3 3 3 4 4 5 4 3 7 7 5 5 5 6 7 8 11 13 13 10 9 11 11 12 11 9 12 11 11 9 7 6 8 10 9 7 10 10 8 9 9 10 10 11 12 12 11 10 10 10 9 8 8 7 8 9 8 7 7 6 6 6 5 4 5 5 5 5 4 5 4 3 3 3 4 5 6 8 13 12 8 7 13 7 6
2 3 3 4 3 4 4 7 5 6 5 6 8 8 7 9 9 13 9 9 10 10 11 12 11 11 11 11 11 10 9 9 11 11 10 11 10 9 9 7 7 8 8 9 10 10 10 10 10 9 8 8 9 9 8 7 6 6 5 5 6 7 6 7 6 5 5 6 6 4 6 6 7 6 5 4 7 7 6 10 7 8 10 13 6
1 3 4 4 5 6 5 7 7 5 7 9 7 7 8 7 8 12 11 10 9 9 11 11 10 10 9 10 11 9 9 9 11 10 9 10 9 8 6 7 8 7 8 8 10 9 8 8 8 9 9 9 9 7 8 7 7 6 6 6 5 5 5 6 6 7 7 5 6 5 5 6 6 7 6 6 5 7 8 12 10 6 7 7 6
2 2 3 3 4 4 5 4 4 6 7 6 6 5 5 7 8 12 10 8 8 8 10 9 10 10 9 9 8 8 9 9 8 8 6 7 7 9 9 9 8 10 9 10 9 9 7 9 9 9 8 8 7 8 7 8 8 7 7 7 7 7 6 5 5 6 6 6 7 7 6 5 6 5 5 6 6 7 7 11 10 5 12 11 4
1 1 1 1 2 2 2 3 4 4 4 5 4 5 5 7 7 11 8 6 6 8 8 10 9 8 7 7 7 7 7 7 7 7 6 6 6 7 7 7 8 8 8 9 7 7 8 7 7 7 6 6 7 7 7 6 7 7 6 8 7 6 6 6 5 5 5 5 5 5 6 6 6 5 6 5 6 6 8 9 10 8 9 12 5
1 1 1 2 1 2 3 3 4 4 4 4 4 5 5 6 7 8 8 7 7 7 8 9 8 7 6 6 6 5 6 6 6 6 6 7 7 7 7 7 7 7 7 6 7 8 8 8 8 8 8 8 7 7 7 7 6 6 6 6 6 5 7 6 6 6 7 7 7 6 6 5 5 5 5 5 5 6 7 8 7 12 13 11 10
2 2 1 1 1 1 2 3 3 3 3 3 4 4 4 4 5 5 6 4 5 6 6 6 6 6 6 7 7 6 6 6 6 6 7 6 6 7 7 6 6 6 6 7 8 8 9 10 9 9 8 8 8 8 8 7 7 6 6 5 6 4 6 7 6 5 6 6 6 6 6 7 6 6 5 5 5 5 6 5 6 8 10 15 11
3 3 3 2 1 1 2 3 3 3 3 4 3 3 4 4 5 6 5 5 6 5 5 4 5 6 5 5 5 6 6 6 6 6 6 5 5 5 6 5 4 5 6 5 7 7 7 8 8 8 9 8 9 8 8 7 7 6 6 7 6 5 5 5 5 5 5 4 5 5 5 6 7 7 6 5 6 5 5 5 5 7 7 10 13
4 4 4 3 3 3 3 2 3 4 4 4 4 2 3 4 5 6 5 6 4 4 4 4 4 5 4 4 4 4 5 5 5 5 4 5 4 4 3 5 4 3 3 4 4 6 6 7 7 7 7 7 8 8 8 8 8 7 7 6 5 5 6 5 4 3 5 4 4 4 4 5 5 6 6 6 6 6 6 6 6 6 6 10 10
4 5 4 4 4 4 4 4 3 3 3 4 4 3 3 3 3 4 4 3 3 2 2 2 2 3 3 4 4 4 4 4 3 3 2 4 5 5 5 4 4 4 5 6 6 6 6 6 5 5 6 6 6 7 8 8 8 8 8 8 7 6 6 7 6 5 5 4 5 5 5 5 5 5 6 6 5 5 6 6 6 5 7 8 9
6 6 5 5 4 4 5 5 4 4 4 3 3 3 5 4 4 3 2 2 2 3 2 3 2 3 3 3 3 2 2 3 2 4 4 4 4 5 5 7 7 6 6 6 7 7 7 8 7 7 7 7 6 6 6 6 6 6 7 8 9 10 10 9 8 5 4 5 6 6 6 6 6 4 5 5 6 5 5 6 6 6 7 7 7
7 6 5 5 5 4 4 3 3 2 1 2 3 3 2 3 3 3 3 3 4 3 3 3 3 4 4 5 4 4 5 4 5 5 4 4 4 4 4 3 4 5 4 6 6 7 7 7 7 7 7 7 7 8 6 6 6 7 6 6 7 8 9 9 10 13 9 5 5 6 7 7 6 5 6 6 6 6 6 6 6 6 7 6 6
6 6 5 5 5 5 3 2 1 1 2 3 1 2 2 2 1 2 2 2 2 3 3 3 3 3 4 4 4 3 3 4 4 4 4 4 4 4 4 5 5 6 5 6 6 5 5 6 6 8 8 9 8 8 8 7 8 8 8 5 6 7 7 8 7 8 10 10 10 9 9 7 5 6 6 6 6 6 6 6 6 6 7 7 6
6 6 6 6 6 6 5 5 4 4 3 2 1 1 1 1 0 0 0 1 0 1 1 1 2 3 3 3 3 3 3 4 4 4 5 5 5 6 5 5 6 6 5 5 6 6 7 8 8 9 9 9 9 9 8 8 8 9 10 9 8 7 8 8 9 9 8 7 9 10 12 11 7 7 7 7 6 7 6 6 8 6 7 8 7
4 4 5 6 5 4 4 4 4 3 3 4 4 2 1 1 2 1 2 3 3 2 2 2 2 3 3 4 4 4 4 4 4 4 5 5 5 5 5 5 5 5 7 7 5 6 6 6 7 8 8 8 10 10 10 8 8 8 9 10 10 9 9 8 9 9 9 9 9 10 10 9 9 11 11 8 7 6 7 7 7 7 7 8 8
5 6 6 5 4 4 5 5 4 4 4 3 3 3 2 3 2 2 2 3 4 4 3 2 2 3 4 4 5 5 4 5 5 5 5 5 5 5 5 4 5 5 4 5 6 4 5 5 6 7 8 8 8 9 9 9 8 7 8 9 9 9 9 10 10 10 9 10 10 10 11 9 8 10 10 10 8 8 8 7 8 8 7 7 7
6 6 5 6 6 5 4 5 4 4 4 4 4 3 2 1 4 3 1 2 1 1 1 1 1 1 3 5 4 5 5 5 5 4 5 5 5 4 4 4 4 5 5 4 5 5 5 7 7 7 8 8 8 8 8 9 9 9 9 9 9 9 10 10 11 11 10 9 10 11 11 10 9 10 11 10 10 10 9 8 9 9 8 7 8
8 7 5 4 4 6 6 5 4 4 3 1 0 1 1 1 1 3 1 1 1 1 1 0 1 2 3 4 4 4 3 3 3 4 4 3 4 4 5 6 6 6 7 7 7 7 7 6 8 8 8 9 9 8 8 8 9 8 8 9 10 11 11 10 10 11 11 10 10 10 11 11 11 11 11 11 11 11 10 11 10 10 8 8 9
4 5 6 7 7 5 5 4 3 3 0 1 1 2 2 2 3 2 3 3 2 2 3 3 4 4 4 2 2 3 2 3 3 3 3 4 5 5 6 6 6 7 7 7 8 9 9 8 9 9 9 8 9 9 8 8 8 8 9 10 10 11 12 12 12 12 11 12 12 11 11 11 11 11 11 11 10 10 9 10 10 9 8 9 9
6 8 7 7 6 5 5 4 4 3 3 3 3 3 4 4 3 3 3 3 2 4 5 5 4 3 3 2 2 3 3 3 3 3 4 5 5 5 6 6 5 6 6 6 7 7 9 10 8 8 9 9 9 9 8 9 10 11 10 11 11 12 12 13 13 13 12 12 11 11 11 11 12 15 16 16 15 13 11 11 11 9 9 10 10
9 8 7 6 5 4 4 4 4 5 4 4 4 4 4 5 4 3 3 2 3 4 4 3 4 2 2 1 1 2 2 2 3 4 5 6 6 7 7 7 7 6 6 7 7 7 7 8 11 11 9 9 8 7 12 22 19 14 13 12 12 12 12 12 12 12 11 11 10 11 11 17 20 20 20 22 24 24 23 17 13 11 10 11 11
7 7 6 5 4 5 4 4 4 4 5 5 5 5 4 4 3 3 3 2 3 4 3 4 3 2 2 2 3 4 5 6 6 7 6 7 9 8 8 7 7 7 8 8 8 9 9 10 10 11 12 10 9 9 20 20 22 23 16 12 11 11 11 11 12 11 13 12 11 10 10 14 16 16 17 23 23 24 24 26 27 26 20 15 12
8 6 4 4 5 6 5 5 4 4 6 7 6 5 4 4 3 3 2 2 3 4 5 4 3 3 4 5 5 5 6 6 6 6 7 6 7 7 8 8 9 10 9 8 9 9 10 9 9 11 11 10 10 14 21 22 23 23 21 16 12 12 10 12 11 11 11 11 12 11 11 9 10 12 14 13 17 22 25 25 25 24 25 26 24
6 6 6 7 8 8 7 5 5 6 6 4 5 5 4 3 3 2 2 3 4 4 4 3 3 3 4 4 4 4 4 4 5 6 6 6 7 7 7 8 9 8 9 9 10 11 10 9 10 12 11 11 10 16 20 22 22 23 23 20 12 12 11 11 10 12 11 12 10 11 10 11 10 22 18 14 14 14 18 24 26 26 26 26 25
5 7 9 9 5 4 5 6 6 5 4 4 4 5 4 3 3 3 3 3 4 4 4 3 3 3 3 3 4 4 4 4 4 5 5 6 6 7 6 6 7 8 7 8 7 9 8 9 9 11 12 11 10 16 22 23 23 24 23 21 14 15 15 14 15 14 14 15 15 13 13 13 12 12 12 12 11 12 12 12 13 12 12 14 21
7 7 7 7 7 5 5 5 6 7 6 6 5 4 4 3 3 4 3 5 4 3 3 3 3 3 3 3 4 3 4 4 4 5 5 5 6 6 6 6 6 7 8 8 8 9 8 8 9 10 11 12 10 20 22 24 24 24 24 22 14 14 14 13 13 12 13 12 13 14 15 17 17 15 13 17 17 15 14 14 15 15 15 16 16
8 10 9 8 8 11 11 9 5 6 5 4 5 4 4 3 3 5 4 4 3 3 3 2 2 2 3 3 3 4 4 4 5 5 5 7 6 5 7 7 6 6 5 6 7 6 9 10 9 10 11 12 11 21 23 23 25 24 26 16 13 13 13 13 13 13 13 13 13 13 13 14 14 14 17 23 20 16 15 16 17 16 14 13 14
7 9 11 10 9 9 7 7 7 6 6 5 4 3 4 4 3 3 4 2 2 2 2 1 1 2 2 3 4 4 5 5 5 6 6 6 7 7 6 5 7 6 7 7 7 8 7 9 11 10 11 12 11 16 23 24 25 26 21 13 13 12 11 13 13 13 13 13 13 13 14 15 15 14 19 23 24 22 15 15 14 14 13 13 15
7 5 4 5 5 5 5 8 8 6 4 4 4 4 4 4 3 3 3 1 2 2 1 1 1 1 3 4 3 4 5 6 5 6 7 7 6 5 5 5 7 9 8 7 8 8 7 7 10 11 10 12 12 16 23 24 25 26 22 15 12 11 13 13 13 13 12 12 13 22 19 16 16 16 22 25 25 20 15 14 14 16 18 15 13
7 10 10 8 8 8 8 7 7 7 5 4 4 5 4 3 3 2 1 1 1 1 1 1 1 2 2 3 3 3 4 5 6 7 6 8 7 7 6 5 6 6 8 7 8 8 9 8 8 10 15 15 12 14 22 24 26 24 20 13 11 10 12 13 13 13 11 12 14 15 23 22 20 21 25 23 24 20 15 14 12 13 14 15 14
5 3 6 9 9 9 6 8 9 8 6 6 4 4 3 3 2 2 1 2 3 2 1 0 1 2 2 3 3 4 4 5 7 7 6 7 6 6 6 6 6 6 7 7 7 8 10 10 9 9 10 10 12 12 15 26 24 25 25 16 11 11 11 13 12 13 13 12 13 13 16 20 22 24 25 26 26 26 18 14 12 13 16 17 10
8 8 8 9 9 10 12 10 7 8 7 5 4 4 3 3 3 2 4 3 3 2 1 0 1 2 2 3 3 3 6 6 5 7 6 6 6 7 7 6 7 7 6 8 8 9 9 10 9 9 9 10 9 13 14 25 25 25 26 22 12 12 12 12 12 13 11 10 8 8 9 19 27 28 28 28 27 26 24 17 13 12 13 17 21
2 6 8 8 8 6 6 5 6 8 7 5 4 5 3 4 3 4 4 3 2 1 0 1 2 2 3 3 4 4 4 5 5 6 7 7 6 5 6 7 6 6 8 9 9 8 9 9 8 9 9 10 11 17 15 20 25 26 25 27 16 13 14 13 13 9 9 9 12 15 11 18 27 27 27 28 28 27 27 17 16 25 29 30 21
7 5 6 9 9 9 9 9 6 6 6 4 5 5 4 4 4 4 3 3 2 1 1 1 2 3 3 4 4 5 6 5 6 6 6 8 6 5 6 6 7 7 7 8 9 9 9 9 9 8 8 10 11 12 21 18 23 26 27 26 27 22 25 17 12 13 12 12 11 12 13 23 28 29 28 28 28 30 24 18 27 27 27 29 24
7 9 12 10 9 7 7 6 6 5 4 4 5 5 4 4 5 2 3 2 1 0 1 1 2 3 4 4 5 5 5 5 6 6 6 7 7 6 6 5 6 6 7 8 7 7 8 8 10 10 9 10 10 10 15 22 20 25 26 27 28 28 28 17 14 12 10 10 11 13 16 26 28 29 29 28 27 26 19 27 27 28 28 26 15
13 12 10 9 12 11 8 6 5 4 4 4 4 5 4 4 2 3 1 1 1 1 1 2 4 4 4 4 5 5 6 6 6 6 6 7 7 5 6 5 5 5 6 7 8 7 8 8 8 10 10 10 11 11 11 14 23 25 27 28 29 29 28 29 19 13 14 13 19 29 32 30 29 29 30 29 23 23 27 27 27 27 25 12 11
3 3 8 7 6 7 8 8 5 4 4 4 4 4 4 3 2 2 1 1 1 1 2 4 4 4 4 4 5 6 6 6 6 5 6 6 7 6 6 7 5 6 5 7 8 7 8 8 9 9 11 12 12 12 12 11 11 16 18 26 30 29 29 29 27 22 28 33 32 31 33 32 27 23 16 12 11 12 21 26 27 25 13 11 10
13 9 9 8 9 9 9 9 9 5 5 4 4 3 4 2 2 2 2 1 1 1 3 4 4 4 4 4 5 6 6 5 5 5 5 6 5 5 6 7 6 6 6 7 8 8 8 8 10 12 12 13 13 13 11 10 10 11 12 14 15 15 22 25 18 14 16 17 19 21 17 22 22 27 27 24 23 22 17 14 11 10 10 11 11
5 7 9 7 9 10 10 9 8 7 6 6 4 4 3 3 3 2 1 1 1 2 3 4 4 4 4 4 5 7 7 6 6 5 6 7 5 5 6 7 8 6 7 8 8 9 10 11 12 14 11 9 9 9 10 11 12 12 12 11 10 11 10 9 11 11 13 14 13 15 18 12 11 11 11 9 9 10 11 11 11 10 11 11 13
10 9 10 11 10 9 9 9 8 6 7 6 5 4 3 4 3 2 2 2 2 3 3 4 4 4 5 4 5 5 6 6 7 6 6 7 8 6 7 8 9 8 8 8 9 12 11 10 9 7 9 12 11 10 9 16 19 23 20 16 12 11 11 11 14 24 17 10 8 8 8 8 8 9 8 8 9 9 9 10 12 11 10 11 10
7 9 8 8 8 10 10 9 7 7 6 5 4 3 3 4 3 2 3 3 3 3 3 4 4 4 4 4 5 5 5 6 6 7 8 8 9 14 10 8 9 13 17 19 17 11 10 9 9 8 8 10 10 12 24 29 27 28 28 29 27 29 29 23 25 31 18 9 7 6 7 8 9 8 9 10 10 10 11 11 10 12 12 10 11
12 11 9 10 9 7 7 7 6 5 4 4 3 3 3 3 4 3 4 4 4 3 3 4 3 4 4 4 5 5 5 5 5 6 6 8 11 10 12 15 16 15 16 18 19 20 21 19 12 10 11 22 25 26 26 26 27 26 27 27 27 26 27 28 27 19 11 7 8 8 8 8 8 8 9 10 10 10 11 11 12 11 10 12 13
Wind_Direction
356 6 14 13 9 11 12 15 15 27 25 21 30 28 30 28 31 29 14 17 23 16 22 28 30 31 43 51 57 39 41 41 40 26 36 34 32 33 32 30 27 29 25 27 23 20 20 20 26 21 14 354 267 236 222 210 215 195 139 154 182 194 235 151 150 123 113 306 324 278 282 252 255 252 252 252 246 247 265 263 251 248 246 244 244
13 21 16 15 16 15 18 23 21 30 18 22 28 27 29 30 36 28 20 24 26 20 14 36 25 40 82 53 77 47 39 42 36 27 23 32 34 32 28 26 29 31 30 32 31 28 24 24 28 25 31 19 5 10 11 1 1 23 110 142 190 190 224 162 169 129 2 224 271 321 315 291 248 236 251 250 240 236 231 235 244 242 250 241 248
24 22 16 20 18 21 27 27 30 31 28 27 21 29 27 29 28 28 25 26 23 20 24 26 16 28 50 42 54 83 57 53 56 39 31 35 35 31 26 24 24 27 25 26 32 28 29 27 21 19 37 31 19 15 23 22 25 2 327 265 214 14 227 153 181 203 204 115 117 9 303 341 331 309 270 257 248 234 226 234 235 240 243 239 231
26 13 12 14 23 27 31 30 24 32 32 28 24 27 29 28 26 28 29 27 24 22 30 22 39 42 46 57 55 68 59 34 48 37 29 30 30 26 28 23 25 28 24 28 30 31 27 25 17 21 23 35 38 15 19 9 27 10 353 318 360 303 249 242 205 219 152 143 276 212 236 68 311 293 287 278 229 227 225 236 228 232 236 238 223
21 16 16 20 28 28 27 24 23 36 32 28 23 25 29 28 26 31 33 30 27 22 24 31 41 39 34 46 46 41 30 28 30 25 23 26 30 26 20 23 26 28 25 26 26 25 26 23 21 17 19 12 16 14 8 8 122 183 215 258 260 270 287 297 317 247 246 255 184 110 313 296 230 259 339 276 335 253 244 240 246 243 246 237 232
26 22 21 21 30 29 30 27 32 33 32 22 18 25 30 31 32 35 37 34 29 27 25 41 51 54 48 46 41 41 40 27 25 12 10 20 17 13 29 29 26 26 25 23 23 22 24 20 20 19 17 10 13 8 353 351 340 309 248 220 252 251 276 329 306 232 242 258 275 296 171 254 274 261 1 290 330 226 271 281 244 252 266 267 256
18 31 29 36 24 35 32 30 25 33 23 11 24 29 32 36 37 40 41 37 30 30 29 40 52 54 62 66 66 60 64 43 28 22 23 11 24 30 27 30 30 30 24 25 20 19 21 21 19 21 20 17 5 10 7 1 351 344 343 278 259 285 303 273 270 270 224 261 255 254 258 209 117 345 268 355 299 323 301 264 264 243 238 237 246
17 32 34 35 35 34 34 22 26 26 8 23 35 30 34 34 40 41 42 41 34 31 39 38 54 50 56 59 57 56 57 48 27 27 31 26 34 23 23 24 27 31 27 23 22 19 17 20 19 22 24 18 16 22 11 355 354 351 358 355 338 313 280 259 270 261 249 270 212 246 255 240 205 264 200 249 280 295 290 314 259 261 247 239 239
24 42 37 31 30 27 22 30 15 27 24 30 31 30 35 39 45 48 47 42 33 37 47 44 52 54 57 56 59 45 49 46 43 43 40 30 43 28 30 23 24 25 26 23 20 18 18 15 16 21 23 18 20 20 17 13 13 6 1 357 354 333 305 286 293 283 274 268 276 268 243 250 241 230 230 175 258 277 280 274 281 319 252 251 249
20 39 42 38 27 25 11 23 37 27 21 30 39 39 41 44 45 50 43 40 34 40 47 51 52 56 59 55 61 52 42 42 48 43 38 31 44 35 30 31 26 27 23 24 22 17 16 14 16 16 14 15 20 20 20 18 14 11 6 356 349 344 330 317 291 291 290 293 280 294 289 296 290 270 219 234 249 225 262 275 278 281 284 262 227
17 24 31 37 19 28 14 46 31 30 28 40 40 39 38 44 48 56 46 44 38 41 45 48 49 50 58 56 57 54 45 47 45 38 31 34 36 31 31 30 31 30 24 25 26 18 17 18 16 13 14 15 15 15 15 13 12 8 2 4 4 358 343 337 328 308 297 295 290 276 273 268 268 266 263 226 238 260 271 268 267 248 248 274 253
8 32 31 22 29 28 31 41 33 27 38 38 36 37 42 42 50 59 43 38 38 39 48 47 50 52 56 57 59 54 52 52 52 46 35 39 32 31 21 33 30 31 30 26 24 17 19 18 17 18 18 13 13 4 10 10 6 8 12 12 0 352 352 353 341 331 325 313 301 290 279 277 276 273 277 265 255 263 263 277 282 294 277 233 265
37 36 34 36 46 34 41 35 37 39 44 39 39 41 47 52 52 64 48 36 42 42 53 50 52 50 51 55 58 57 57 57 56 57 40 44 34 33 28 28 19 24 19 22 15 14 16 18 18 19 15 14 9 13 11 12 10 10 9 4 3 4 354 349 343 328 327 321 314 313 306 295 283 283 279 272 270 278 276 283 281 270 274 286 272
66 55 60 63 68 61 57 63 58 50 42 43 40 48 48 55 53 66 55 40 44 51 52 56 52 51 50 58 58 59 60 59 54 58 45 50 42 44 39 30 27 24 14 18 0 1 14 17 18 16 14 9 10 10 14 15 16 16 11 8 1 355 353 352 336 325 322 307 309 310 309 307 305 303 293 289 281 279 275 271 286 279 271 281 276
121 122 144 139 112 90 81 70 70 65 55 45 45 45 53 55 55 61 58 37 47 51 53 57 54 52 54 57 61 61 65 62 59 53 45 42 34 42 35 26 29 13 15 0 1 8 9 10 11 13 7 4 2 6 6 11 15 14 20 7 4 5 356 352 348 346 333 326 323 312 308 306 297 300 299 290 288 274 274 280 284 291 290 280 284
188 175 181 183 158 127 97 91 92 88 76 65 59 62 71 73 75 74 75 63 56 58 57 61 56 55 48 51 49 52 54 57 52 42 39 41 35 39 28 27 20 13 8 8 5 8 8 5 5 6 1 0 360 359 359 3 2 9 6 10 4 3 357 354 348 345 333 326 319 313 320 305 302 292 292 288 283 275 277 283 280 277 283 290 287
199 195 195 181 175 157 144 134 120 109 102 98 96 98 100 90 81 72 63 57 52 55 62 58 57 60 46 52 49 52 53 56 55 45 40 33 40 30 31 11 10 14 3 4 359 3 3 5 2 359 358 355 353 353 353 354 354 360 360 354 359 350 353 346 338 345 326 324 322 315 303 300 300 304 299 285 278 281 269 266 262 264 271 276 288
204 204 202 188 170 156 158 159 147 143 141 130 121 129 105 95 86 82 68 66 47 54 58 58 64 65 61 57 55 62 62 53 50 47 36 45 32 31 19 19 9 345 359 345 355 357 356 359 357 349 347 348 347 343 348 346 350 349 348 344 337 341 340 334 338 327 320 322 311 313 304 298 291 297 293 292 290 280 277 265 257 257 249 260 273
201 203 198 195 180 165 161 157 166 154 144 136 138 128 113 110 110 101 104 123 132 139 132 101 78 84 82 71 67 57 60 61 52 52 51 47 31 22 22 5 356 1 3 360 0 357 356 351 352 339 337 336 336 337 340 340 344 341 341 337 337 345 337 328 325 333 319 323 315 312 306 297 291 293 294 293 283 278 273 270 265 247 250 243 258
200 196 194 185 181 175 165 162 162 158 148 149 125 90 64 66 76 80 96 114 103 71 79 69 54 72 62 75 66 79 77 70 67 45 35 35 21 20 8 8 356 352 358 356 357 352 349 347 344 340 334 332 329 326 327 326 328 331 330 334 330 336 335 330 323 318 310 316 314 309 300 295 295 296 292 287 285 275 267 271 266 262 259 243 243
200 194 188 181 180 190 187 179 169 160 117 73 73 90 101 66 68 66 69 29 37 17 41 35 35 32 47 37 22 25 21 19 23 23 24 8 4 7 5 341 341 347 351 347 347 343 339 338 335 333 331 328 328 327 329 326 325 321 320 315 316 324 325 323 327 325 324 312 301 296 295 291 290 285 280 283 282 277 273 262 260 264 263 254 245
195 188 180 182 188 192 196 178 162 136 155 126 68 121 93 93 54 32 38 27 37 5 26 15 25 29 41 18 4 4 24 20 23 11 2 349 342 342 344 351 348 330 349 335 334 330 328 326 328 325 326 327 325 324 326 331 327 324 319 318 317 315 310 306 310 307 313 319 319 312 296 285 281 276 277 275 272 277 271 270 263 251 258 260 233
196 181 179 185 186 185 185 182 183 185 183 169 196 172 185 200 8 17 87 275 250 277 342 50 33 21 358 4 360 6 6 15 14 7 359 347 343 335 347 352 335 330 330 327 323 326 326 328 327 325 325 325 324 322 324 328 326 326 322 320 320 317 312 309 307 298 295 296 300 302 304 305 303 290 274 267 271 268 264 262 264 251 256 257 249
175 175 181 190 186 176 165 175 187 195 191 206 211 222 258 268 254 265 222 250 279 310 346 14 7 1 10 360 8 360 2 5 4 353 351 334 336 328 330 337 321 325 323 321 325 317 316 315 311 311 313 313 317 317 319 321 320 320 319 315 316 316 310 305 297 296 297 293 287 288 285 289 298 299 295 288 274 268 267 264 263 259 251 259 251
179 186 193 189 171 176 198 198 195 204 212 212 210 219 223 242 241 250 290 352 355 352 342 352 19 349 4 12 353 8 3 349 348 345 334 328 323 321 318 314 313 313 307 312 312 304 302 300 303 304 305 305 303 306 309 312 314 313 309 308 306 306 304 300 296 292 288 287 285 279 282 284 282 282 285 287 285 278 271 270 268 266 260 258 256
189 192 183 188 195 201 204 210 215 213 198 199 213 220 249 341 23 20 345 326 320 306 310 307 27 23 8 9 359 0 359 347 337 327 314 309 309 311 307 304 308 309 309 303 301 310 309 309 311 308 305 304 303 306 308 309 311 311 307 303 300 297 297 293 291 288 284 280 280 281 282 280 277 273 276 278 282 282 280 270 268 268 264 261 262
194 190 191 196 207 211 211 213 213 207 202 193 69 33 34 51 30 2 344 277 280 302 344 69 66 70 42 21 5 351 335 323 316 307 313 327 333 334 336 335 336 334 329 328 328 325 324 320 315 314 311 310 309 309 312 308 304 301 299 299 298 296 290 289 286 286 284 278 273 273 276 277 275 272 272 272 276 278 281 280 275 273 268 267 266
192 191 193 200 208 211 211 222 228 234 118 116 147 143 132 114 101 63 48 44 10 43 72 86 75 55 50 11 341 311 323 324 318 333 342 347 344 340 342 338 339 337 333 334 333 330 327 328 320 318 316 318 317 318 317 313 307 306 304 298 295 293 292 289 287 283 283 283 283 280 274 271 269 270 273 273 271 274 273 275 277 278 278 274 270
193 206 203 204 207 208 215 221 225 201 181 153 136 122 118 98 90 90 77 58 56 79 70 71 72 69 32 7 348 348 358 342 346 350 350 346 342 337 337 337 333 330 331 326 325 328 326 322 320 321 322 322 324 324 325 325 321 314 309 303 301 297 295 294 290 287 283 281 277 277 280 280 275 272 264 266 266 263 269 275 272 272 273 273 274
200 207 208 210 209 208 218 220 219 202 177 149 132 132 131 127 124 124 90 61 84 81 87 83 79 68 43 19 2 13 2 345 359 354 354 347 343 340 336 335 335 331 329 327 331 333 326 327 327 324 326 327 323 323 321 318 316 313 310 305 299 294 291 287 287 287 282 277 276 278 278 279 282 284 285 284 283 280 274 269 270 269 268 269 268
205 209 212 210 216 218 221 216 215 184 168 155 150 141 137 122 117 103 93 102 109 109 108 101 82 70 61 40 34 15 3 7 2 357 351 349 344 341 338 335 337 338 337 339 337 335 340 335 330 327 326 326 323 321 319 318 316 312 308 302 298 293 287 284 281 281 284 287 285 282 282 287 287 287 288 289 287 285 283 281 279 276 273 266 266
207 212 206 200 198 195 191 195 174 160 152 150 147 146 135 125 110 101 103 97 90 81 80 72 57 43 35 30 19 11 4 1 358 353 345 342 338 338 339 339 338 339 340 341 338 338 335 333 327 324 320 321 318 318 319 317 314 312 309 305 297 290 287 285 282 283 284 288 290 290 288 284 282 287 289 287 284 285 287 286 284 280 277 273 269
200 194 193 191 191 190 186 177 166 161 155 160 143 134 131 137 134 141 117 94 81 82 78 71 53 52 33 30 18 12 357 353 350 344 336 337 338 337 340 340 338 338 334 335 333 331 328 329 326 322 320 320 316 316 316 316 313 311 309 307 297 289 286 284 284 286 287 289 290 290 291 285 284 288 287 285 287 288 287 286 285 284 281 277 274
202 194 189 197 189 184 188 181 166 151 136 131 135 129 129 127 127 123 103 86 85 67 79 75 62 50 33 25 14 359 350 341 339 336 338 337 339 336 332 329 325 329 328 322 321 321 322 323 323 320 316 316 310 312 313 312 311 309 308 306 299 298 296 294 296 298 301 301 299 299 294 290 285 280 277 279 277 277 279 279 281 280 280 276 275
203 204 204 197 187 178 166 166 159 148 138 127 119 122 120 111 115 99 85 82 74 83 75 77 64 49 34 17 1 348 342 334 333 334 335 331 329 324 326 325 325 322 323 321 323 321 319 318 318 315 310 308 306 309 311 310 310 309 308 307 302 300 297 294 295 295 292 289 291 293 294 294 296 296 295 294 293 292 291 289 285 281 277 276 273
206 197 203 189 186 181 179 174 151 140 140 135 136 129 121 111 90 96 80 84 85 86 85 67 56 39 24 1 352 340 332 331 329 331 329 324 322 320 321 321 316 311 303 307 306 307 310 313 312 310 306 303 304 309 309 309 309 309 309 307 304 298 295 293 294 297 296 296 293 290 287 285 281 280 286 288 286 282 276 275 273 272 271 267 265
211 196 201 196 185 180 167 143 146 149 142 140 128 119 120 111 95 87 90 87 92 102 97 74 60 22 5 353 347 339 331 328 328 322 319 317 320 318 316 314 311 310 311 312 307 308 309 307 307 305 302 300 299 307 309 309 310 309 309 303 299 297 295 296 296 300 300 300 301 302 303 303 303 304 304 302 299 296 293 286 280 278 275 272 272
213 202 178 157 154 128 138 149 147 143 134 126 124 129 125 114 109 107 105 112 114 125 117 81 20 9 349 345 339 332 320 316 315 311 309 309 308 303 302 313 310 312 310 307 308 305 301 300 299 299 298 298 299 305 308 308 308 306 305 303 301 295 295 297 298 296 296 296 297 299 301 299 296 293 295 292 291 289 277 271 270 272 273 268 265
192 176 172 171 164 157 149 142 143 144 144 133 132 130 121 124 125 115 107 129 152 144 115 57 342 344 324 322 315 312 304 302 301 301 303 303 304 301 302 302 294 296 296 303 302 300 298 295 290 291 298 299 297 303 306 305 304 303 303 296 294 289 290 295 298 297 295 296 295 295 293 293 291 291 293 295 297 299 295 292 284 274 270 268 271
198 206 175 158 142 129 145 161 169 163 145 144 133 119 124 130 135 118 154 196 183 156 131 110 281 298 298 299 299 295 292 293 294 296 294 290 293 298 297 298 295 291 295 299 297 294 297 296 295 295 294 295 297 296 299 302 302 301 301 299 292 292 290 289 289 290 288 278 274 271 275 288 291 292 292 293 293 291 289 288 293 292 291 288 300
179 176 145 152 168 170 175 176 162 149 148 144 131 125 141 153 160 169 210 195 157 152 142 225 280 282 282 287 290 283 287 284 281 285 287 289 288 289 295 292 294 295 291 294 295 293 292 293 295 293 293 294 290 294 295 299 298 299 300 300 291 285 283 283 281 279 271 271 270 279 284 289 291 290 290 290 289 288 287 283 278 273 275 283 288
157 159 160 161 163 157 139 139 150 148 148 141 136 139 158 166 174 208 206 152 154 147 178 239 269 279 284 288 284 284 277 279 282 284 288 283 279 277 282 285 286 292 295 293 295 296 294 294 294 293 292 291 290 291 291 292 294 295 297 298 297 287 288 285 285 280 284 284 288 289 278 285 291 292 291 290 289 289 286 283 277 279 282 284 283
159 171 198 166 164 173 175 162 152 148 143 146 133 149 166 175 195 219 170 147 153 147 225 254 279 283 285 286 286 283 285 282 282 278 280 283 284 282 276 277 284 288 288 292 295 296 297 296 298 296 293 291 289 284 286 285 288 294 298 298 297 296 297 297 292 287 282 280 278 279 277 283 288 290 289 288 286 286 286 284 287 289 290 291 293
208 192 177 174 171 164 156 151 149 148 145 146 143 154 169 184 218 166 161 141 140 191 220 279 280 283 289 289 282 283 279 278 277 279 277 279 284 279 278 275 276 281 291 295 292 292 294 296 301 301 297 293 289 282 280 284 288 293 299 300 300 300 299 294 290 284 283 276 280 277 275 278 282 285 291 297 299 300 297 295 294 292 291 291 291
195 192 179 179 178 169 152 147 154 150 148 147 147 148 175 196 204 144 165 168 203 196 279 281 280 280 283 278 283 279 280 276 274 274 281 282 283 284 289 277 275 282 282 286 288 286 286 291 292 293 295 291 287 281 279 279 287 297 302 300 298 297 296 296 293 283 275 274 277 282 285 289 296 300 300 300 301 298 293 291 289 287 288 285 282
166 156 171 170 132 138 149 159 166 167 158 155 159 151 175 217 164 160 178 174 186 227 280 274 275 277 277 286 292 287 279 273 272 266 263 267 274 283 279 285 278 273 273 278 284 283 279 281 283 285 290 289 283 286 286 284 282 286 289 290 290 291 291 291 290 288 288 287 288 288 291 294 295 292 290 278 265 271 279 287 291 294 297 291 287
195 184 145 147 152 156 168 169 177 186 173 169 168 177 187 195 191 200 190 173 159 224 262 273 276 277 282 282 285 286 287 281 277 277 269 270 268 262 266 274 275 275 272 271 274 279 282 279 285 291 289 288 288 285 285 291 290 289 282 278 282 279 279 281 281 276 278 279 277 278 274 275 278 283 287 289 290 291 292 289 281 273 268 265 265
162 146 158 148 161 167 170 175 186 180 172 178 179 193 201 198 212 202 180 144 212 235 252 265 273 276 282 281 280 282 285 291 284 283 289 287 267 252 257 266 272 267 271 271 272 276 280 286 286 284 278 262 272 285 294 295 292 282 278 280 272 275 278 268 271 268 265 269 270 271 275 275 277 276 276 270 269 272 273 275 270 267 263 260 258
160 169 168 172 166 169 176 177 188 162 169 177 197 205 197 200 209 192 165 176 232 248 258 271 273 280 279 275 274 281 283 285 290 282 268 264 281 277 267 268 253 236 230 237 232 241 259 271 269 276 280 287 302 299 290 303 304 308 309 307 305 299 296 293 292 296 293 270 244 262 258 270 262 267 267 269 271 272 272 272 275 275 273 271 267
155 135 163 160 172 169 172 181 171 156 172 186 204 211 210 210 213 207 170 189 223 239 255 269 267 270 277 282 282 280 280 284 286 294 298 292 270 284 278 271 281 277 276 282 291 292 296 297 295 291 299 303 303 304 308 311 312 312 313 313 311 309 309 311 313 319 326 317 312 305 301 297 296 302 297 293 291 288 285 282 278 277 276 271 265
157 156 174 175 173 169 163 170 163 156 174 193 210 211 216 225 210 209 184 200 200 222 245 257 264 267 269 273 278 283 284 280 282 289 294 302 310 307 298 284 276 276 287 295 299 301 305 308 311 310 309 308 307 310 313 316 317 317 314 313 313 314 316 319 321 321 329 329 322 315 306 301 298 298 294 291 288 286 284 283 284 282 273 272 272